Tracking 28794 objects as of 19-Apr-2024
HD Live streaming from Space Station
objects crossing your sky now

FENGYUN 1C DEB

Track FENGYUN 1C DEB now!
10-day predictions


NORAD ID: 36152
Int'l Code: 1999-025DRZ
Perigee: 813.5 km
Apogee: 901.5 km
Inclination: 98.8 °
Period: 101.9 minutes
Semi major axis: 7228 km
RCS: 0.0079 m2 (small)
Launch date: May 10, 1999
Source: People's Republic of China (PRC)
Launch site: Taiyaun Space Center, China (TSC)

Note: This is SATELLITE DEBRIS
Your satellite tracking list
Your tracking list is empty




NASA's NSSDC Master Catalog

Two Line Element Set (TLE):
1 36152U 99025DRZ 24107.94597743  .00004909  00000-0  26257-2 0  9990
2 36152  98.7991 151.2332 0060882 137.7329 222.8558 14.12634154556026
Source of the keplerian elements: AFSPC